Regional Weather Roundup
Issued by NWS

Home | Current Version | Previous Version | Graphics & Text | Print | Product List | Glossary On
Versions: 1 2 3 4 5 6 7 8 9 10 11 12 13 14 15 16 17 18 19 20 21 22 23 24 25 26 27
000
ASUS45 KBOI 220410
RWRID

IDAHO REGIONAL WEATHER ROUNDUP
NATIONAL WEATHER SERVICE BOISE ID
1000 PM MDT THU SEP 21 2017

NOTE: "FAIR" INDICATES FEW OR NO CLOUDS BELOW 12000 FEET
WITH NO SIGNIFICANT WEATHER AND/OR OBSTRUCTIONS TO VISIBILITY

IDZ012-014-220500-
SOUTHWEST IDAHO


CITY           SKY/WX    TMP DP  RH WIND       PRES   REMARKS
BOISE          CLOUDY    51  36  56 NE7       29.82R
CALDWELL       MOCLDY    48  35  60 W5        29.84R
MOUNTAIN HOME  MOCLDY    47  38  70 N6        29.82R
$$

IDZ016-017-220500-
SOUTHCENTRAL IDAHO


CITY           SKY/WX    TMP DP  RH WIND       PRES   REMARKS
BURLEY         CLOUDY    44  39  82 SW6       29.82R
JEROME         CLOUDY    45  42  89 S3        29.82S
TWIN FALLS     CLOUDY    43  40  89 S8        29.83S
$$

IDZ019>023-220500-
SOUTHEAST IDAHO


CITY           SKY/WX    TMP DP  RH WIND       PRES   REMARKS
IDAHO FALLS    LGT RAIN  41  40  96 W8        29.81R
POCATELLO      LGT RAIN  40  38  93 SE6       29.83S
REXBURG        LGT RAIN  41  40  96 W5        29.79S
$$

IDZ006-010-011-018-031-032-220500-
CENTRAL IDAHO MOUNTAINS


CITY           SKY/WX    TMP DP  RH WIND       PRES   REMARKS
MCCALL         CLOUDY    41  33  73 N13       29.83R
HAILEY         CLOUDY    39  37  93 SE8       29.83R WCI  34
STANLEY          N/A     35  33  92 CALM      29.81F
SALMON         CLOUDY    45  36  70 N7        29.82F
CHALLIS        CLOUDY    43  33  68 N8        29.80F
$$

IDZ002-004-006-007-026-220500-
NORTHERN IDAHO


CITY           SKY/WX    TMP DP  RH WIND       PRES   REMARKS
LEWISTON       PTCLDY    52  42  69 CALM      29.92F
LOWELL           N/A     45  41  86 N3        29.93R
COEUR D`ALENE  CLEAR     42  40  92 E8        29.97R
MULLAN PASS    CLEAR     32  30  92 VRB5      29.92F WCI  27
$$




USA.gov is the U.S. government's official web portal to all federal, state and local government web resources and services.